OpenBCM V1.08-5-g2f4a (Linux)

Packet Radio Mailbox

IZ3LSV

[San Dona' di P. JN]

 Login: GUEST





  
WG3K   > KEPS     02.02.25 04:53l 324 Lines 15467 Bytes #80 (0) @ AMSAT
BID : ORB25033.1
Read: GUEST
Subj: 2Line Orbital Elements 25033.AMSAT
Path: IZ3LSV<DB0ERF<DK0WUE<DK0WUE<VK5RSV<VK2RZ<N6PNK<VE3CGR<WW4BSA<N3HYM<
      WG3K
Sent: 250202/0247Z 13237@WG3K.#SMD.MD.USA.NOAM LinBPQ6.0.24


QST de W1STR

AMSAT Orbital Elements for Amateur Satellites in TLE Format
From Orbital Analysis Office
New England Sci-Tech STEM Education Center
Natick, MA February 02, 2025
To all radio amateurs


These element sets describe the orbits of various satellites 
in use by the amateur radio community. For details see:
www.amsat.org/keplerian-elements-formats/

A daily update of element sets is available at:
www.amsat.org/tle/daily-bulletin.txt
or without bulletin text:
www.amsat.org/tle/dailytle.txt


AO-07
1 07530U 74089B   25032.50370499 -.00000041  00000-0  36540-4 0  9990
2 07530 101.9928  35.4076 0012214   7.8275 117.2826 12.53685678297771
UO-11
1 14781U 84021B   25032.45440129  .00004142  00000-0  45004-3 0  9994
2 14781  97.7381   1.5545 0009135  48.8380 311.3623 14.88603911182570
AO-27
1 22825U 93061C   25032.38125369  .00000322  00000-0  14042-3 0  9998
2 22825  98.7569  93.1912 0009311 124.9523 235.2535 14.30720328635380
FO-29
1 24278U 96046B   25032.69487644  .00000079  00000-0  11917-3 0  9996
2 24278  98.5883 303.3375 0349308 313.9955  43.2870 13.53235184405729
NOAA-15
1 25338U 98030A   25032.77152647  .00000400  00000-0  18243-3 0  9997
2 25338  98.5494  60.8976 0010504  19.4788 340.6792 14.26872621390175
GO-32
1 25397U 98043D   25032.48550125  .00000280  00000-0  14163-3 0  9990
2 25397  98.9552   9.0397 0001028 165.4767 194.6441 14.24245675380056
ISS
1 25544U 98067A   25032.73245786  .00013805  00000-0  25233-3 0  9999
2 25544  51.6350 257.9368 0003396 260.4392 185.1884 15.49668340494153
NO-44
1 26931U 01043C   25032.52462946  .00000512  00000-0  22318-3 0  9996
2 26931  67.0507  98.9022 0006110 262.8359  97.2048 14.31604858218776
SO-50
1 27607U 02058C   25032.55064971  .00002784  00000-0  37291-3 0  9992
2 27607  64.5525 235.5248 0040754   7.0359 353.1309 14.80875056190473
CO-55
1 27844U 03031E   25032.01747687  .00000791  00000-0  36482-3 0  9997
2 27844  98.6786  41.9475 0009346 194.5841 165.5069 14.23796644120343
CO-57
1 27848U 03031J   25032.68029544  .00000719  00000-0  33745-3 0  9998
2 27848  98.6813  42.7011 0008999 210.0331 150.0332 14.23161988120220
RS-22
1 27939U 03042A   25032.75688301  .00003008  00000-0  49040-3 0  9990
2 27939  98.3119 199.2647 0012488  57.4040  57.5867 14.71691569142020
NOAA-18
1 28654U 05018A   25032.71775717  .00000450  00000-0  26219-3 0  9995
2 28654  98.8537 113.5941 0015042 130.7493 229.4988 14.13504106 15687
CO-58
1 28895U 05043F   25032.60370476  .00004302  00000-0  72342-3 0  9999
2 28895  98.2277 175.5902 0014815 356.0914   4.0174 14.70063018 28135
CO-65
1 32785U 08021C   25032.74432814  .00011560  00000-0  88667-3 0  9992
2 32785  97.7667   3.3017 0008607 290.9503  69.0800 15.01938522909942
AAUSAT2
1 32788U 08021F   25032.53661122  .00111347  00000-0  23104-2 0  9996
2 32788  97.6061  23.5829 0007561  91.0619 269.1496 15.45263639913366
CO-66
1 32791U 08021J   25032.41867673  .00023714  00000-0  13288-2 0  9998
2 32791  97.7166  10.1717 0002397 223.9619 136.1421 15.13400040911074
RS-30
1 32953U 08025A   25032.76177756  .00000046  00000-0  26397-3 0  9995
2 32953  82.5054 306.6934 0019330 327.4236  32.5650 12.43158163757657
NOAA-19
1 33591U 09005A   25032.77421105  .00000386  00000-0  23006-3 0  9995
2 33591  99.0163  96.6714 0013745   8.7939 351.3471 14.13275041824051
SRMSAT
1 37841U 11058D   25032.78758269  .00000667  00000-0  21914-3 0  9991
2 37841  19.9697 207.8345 0011809  99.1018  34.1019 14.11351493687250
ZACUBE-1
1 39417U 13066B   25032.40211101  .00009470  00000-0  86686-3 0  9999
2 39417  97.7649 350.4230 0047733 118.8668 241.7355 14.94292154605758
Delfi-N3xt
1 39428U 13066N   25032.30384678  .00015246  00000-0  16573-2 0  9995
2 39428  97.8382 311.6584 0091745  62.6218 298.4295 14.85086624600014
GOMX-1
1 39430U 13066Q   25032.68565319  .00005480  00000-0  87030-3 0  9998
2 39430  97.7001 259.1299 0133249 241.3310 117.4445 14.66683936596657
LO-74
1 39440U 13066AA  25032.80056250  .00009679  00000-0  10233-2 0  9996
2 39440  97.8379 338.5254 0062681 240.4325 119.0635 14.87960428603629
AO-73
1 39444U 13066AE  25032.40516417  .00014124  00000-0  11504-2 0  9995
2 39444  97.7490 354.4013 0043645  95.4202 265.2002 14.98858909604363
DTUSAT-2
1 40030U 14033W   25032.59449285  .00015307  00000-0  10798-2 0  9999
2 40030  98.0406 358.6360 0011273 126.6530 233.5733 15.05016011577122
EO-80
1 40032U 14033Y   25032.42247863  .00014711  00000-0  10356-2 0  9999
2 40032  98.0310 358.2847 0011505  77.6857 282.5655 15.05101799577078
XW-2C
1 40906U 15049H   25032.81653497  .00568412  13689-3  13973-2 0  9994
2 40906  97.4397  67.1122 0004212 157.6823 202.4637 15.96057094520254
LILACSAT-2
1 40908U 15049K   25032.73314242  .00019866  00000-0  59685-3 0  9994
2 40908  97.5168  50.3145 0008269 255.8300 104.2024 15.34424520518596
IO-86
1 40931U 15052B   25029.03811298  .00001879  00000-0  16388-3 0  9994
2 40931   5.9985 178.0957 0012329  44.5838 315.5281 14.78544596504930
Horyu-4
1 41340U 16012D   25032.74152477  .00033248  00000-0  11462-2 0  9997
2 41340  30.9976 266.6988 0005946 174.8753 185.1952 15.28793074493151
Lapan A3
1 41603U 16040E   25032.76805349  .00006648  00000-0  24295-3 0  9998
2 41603  97.1394  42.5022 0011694  15.5219 344.6378 15.28345604478257
CAS-2T
1 41847U 16066G   25032.21434398  .00003959  00000-0  57509-3 0  9994
2 41847  98.4344 107.7716 0348100 206.4944 151.8081 14.42830432432501
CAS-4B
1 42759U 17034B   25032.80041745  .00056160  00000-0  11119-2 0  9996
2 42759  43.0137 353.4971 0014821 123.2826 236.9455 15.46152778422715
CAS-4A
1 42761U 17034D   25032.76938942  .00059325  00000-0  11563-2 0  9997
2 42761  43.0172 351.6702 0016091 129.9960 230.2314 15.46564793422728
TechnoSat
1 42829U 17042E   25032.45290304  .00006530  00000-0  52628-3 0  9998
2 42829  97.3914 207.3793 0012807  13.1942 346.9615 15.00164752411505
AO-91
1 43017U 17073E   25032.58427083  .00018212  00000-0  99375-3 0  9992
2 43017  97.5480 266.6979 0182289 242.2051 116.0592 15.01221455389988
S-Net D
1 43186U 18014G   25032.27558600  .00011193  00000-0  70060-3 0  9992
2 43186  97.5746 296.6017 0008298 313.4102  46.6435 15.09535919383003
S-Net B
1 43187U 18014H   25032.27950607  .00011265  00000-0  70525-3 0  9992
2 43187  97.5745 296.5707 0008956 307.5610  52.4805 15.09520796383000
S-Net A
1 43188U 18014J   25032.60780456  .00011533  00000-0  72142-3 0  9998
2 43188  97.5756 297.0293 0008813 307.2070  52.8354 15.09547573383058
S-Net C
1 43189U 18014K   25032.28162561  .00011240  00000-0  70354-3 0  9992
2 43189  97.5768 296.6989 0010304 298.9828  61.0367 15.09518487381555
Ten-Koh
1 43677U 18084G   25032.45284104  .00006280  00000-0  51942-3 0  9998
2 43677  98.0820 199.6610 0012285 334.3071  25.7539 14.99236515341034
PO-101
1 43678U 18084H   25032.72577069  .00003573  00000-0  31401-3 0  9994
2 43678  98.0901 204.1315 0008697 355.9262   4.1887 14.97211288341240
QO-100
1 43700U 18090A   25032.74497277  .00000149  00000-0  00000+0 0  9994
2 43700   0.0147  94.8282 0001041 227.6340 103.6719  1.00271326 22903
MinXSS-2
1 43758U 18099A   25032.59683849  .00028061  00000-0  13162-2 0  9990
2 43758  97.5211  98.6470 0012546 243.8176 116.1769 15.19559282337491
AO-95
1 43770U 18099N   25032.62326765  .00017819  00000-0  99965-3 0  9994
2 43770  97.5127  92.3226 0010472 299.6845  60.3343 15.13372410337172
RANGE-A
1 43773U 18099R   25032.61653923  .00010409  00000-0  69781-3 0  9996
2 43773  97.4691  84.7612 0010533 271.4731  88.5290 15.07003043336936
MOVE-II
1 43780U 18099Y   25032.60426094  .00088490  00000-0  22005-2 0  9992
2 43780  97.4856 102.5046 0003872 251.3893 108.6932 15.39951013337911
SNUSat 2
1 43782U 18099AA  25032.58051551  .00015216  00000-0  90331-3 0  9997
2 43782  97.4804  90.0146 0011910 233.3892 126.6244 15.11353778337144
SnugLite
1 43784U 18099AC  25032.61348532  .00018024  00000-0  10041-2 0  9990
2 43784  97.4623  89.4058 0002646 227.1910 132.9099 15.13662303337256
ITASat 1
1 43786U 18099AE  25032.72743056  .00012627  00000-0  77561-3 0  9998
2 43786  97.4771  90.0033 0013946 289.2513  70.7207 15.10137767337142
EAGLET 1
1 43790U 18099AJ  25032.56987275  .00009623  00000-0  64302-3 0  9999
2 43790  97.4966  90.1519 0011400 268.4790  91.5132 15.07138501336771
ESEO
1 43792U 18099AL  25032.11124737  .00002749  00000-0  21561-3 0  9990
2 43792  97.4650  84.6129 0009128 225.2240 134.8243 15.01716070336538
CSIM
1 43793U 18099AM  25032.59054607  .00093997  00000-0  23403-2 0  9992
2 43793  97.5034 104.4372 0007403 225.6002 134.4638 15.39871711337755
JO-97
1 43803U 18099AX  25032.56512799  .00021314  00000-0  11060-2 0  9992
2 43803  97.4870  93.0611 0007254 226.9159 133.1467 15.16133468337340
Suomi 100
1 43804U 18099AY  25032.59968751  .00019128  00000-0  10422-2 0  9990
2 43804  97.4933  92.6890 0012476 229.4568 130.5578 15.14381176337308
ISAT
1 43879U 18111D   25032.27121784  .00029917  00000-0  12921-2 0  9992
2 43879  97.6048 304.4664 0008060 294.7409  65.2988 15.22420101334122
UWE-4
1 43880U 18111E   25032.17156886  .00023135  00000-0  10770-2 0  9990
2 43880  97.5980 303.5997 0011883 305.3840  54.6284 15.19869389334089
Sparrow
1 43881U 18111F   25032.27564333  .00031621  00000-0  13316-2 0  9990
2 43881  97.6171 306.9122 0007260 345.7983  14.3048 15.23272890334205
Prox-1
1 44339U 19036A   25032.61098827  .00021875  00000-0  30955-2 0  9992
2 44339  23.9970 179.8074 0008611  55.7477 304.3833 14.75576074299158
SONATE
1 44400U 19038Q   25032.61501607  .00082764  00000-0  11407-2 0  9993
2 44400  97.7101  46.3992 0010328  16.9616 343.1981 15.56885251309473
